owner,sensor,date,latitude,longitude,sea_surface_height_above_sea_level,qcFlag 
COMPS,ioos:station:USF.COMPS:ARP:1,2019-09-01T00:54:00,28.4330,-82.6670,-0.243,11114222 
COMPS,ioos:station:USF.COMPS:ARP:1,2019-09-01T01:54:00,28.4330,-82.6670,-0.364,11114222 
COMPS,ioos:station:USF.COMPS:ARP:1,2019-09-01T02:54:00,28.4330,-82.6670,-0.443,11114222 
COMPS,ioos:station:USF.COMPS:ARP:1,2019-09-01T03:54:00,28.4330,-82.6670,-0.41,11114222 
COMPS,ioos:station:USF.COMPS:ARP:1,2019-09-01T04:54:00,28.4330,-82.6670,-0.231,11114222 
COMPS,ioos:station:USF.COMPS:ARP:1,2019-09-01T05:54:00,28.4330,-82.6670,0.099,11111222 
COMPS,ioos:station:USF.COMPS:ARP:1,2019-09-01T06:54:00,28.4330,-82.6670,0.365,11111222 
COMPS,ioos:station:USF.COMPS:ARP:1,2019-09-01T07:54:00,28.4330,-82.6670,0.499,11111222 
COMPS,ioos:station:USF.COMPS:ARP:1,2019-09-01T08:54:00,28.4330,-82.6670,0.407,11111222 
COMPS,ioos:station:USF.COMPS:ARP:1,2019-09-01T09:54:00,28.4330,-82.6670,0.275,11111222 
COMPS,ioos:station:USF.COMPS:ARP:1,2019-09-01T10:54:00,28.4330,-82.6670,0.131,11111222 
COMPS,ioos:station:USF.COMPS:ARP:1,2019-09-01T11:54:00,28.4330,-82.6670,-0.022,11114222 
COMPS,ioos:station:USF.COMPS:ARP:1,2019-09-01T12:54:00,28.4330,-82.6670,-0.165,11114222 
COMPS,ioos:station:USF.COMPS:ARP:1,2019-09-01T13:54:00,28.4330,-82.6670,-0.277,11114222 
COMPS,ioos:station:USF.COMPS:ARP:1,2019-09-01T14:54:00,28.4330,-82.6670,-0.303,11114222 
COMPS,ioos:station:USF.COMPS:ARP:1,2019-09-01T15:54:00,28.4330,-82.6670,-0.114,11114222 
COMPS,ioos:station:USF.COMPS:ARP:1,2019-09-01T16:54:00,28.4330,-82.6670,0.165,11111222 
COMPS,ioos:station:USF.COMPS:ARP:1,2019-09-01T17:54:00,28.4330,-82.6670,0.457,11111222 
COMPS,ioos:station:USF.COMPS:ARP:1,2019-09-01T18:54:00,28.4330,-82.6670,0.685,11111222 
COMPS,ioos:station:USF.COMPS:ARP:1,2019-09-01T19:54:00,28.4330,-82.6670,0.693,11111222 
COMPS,ioos:station:USF.COMPS:ARP:1,2019-09-01T20:54:00,28.4330,-82.6670,0.624,11111222 
COMPS,ioos:station:USF.COMPS:ARP:1,2019-09-01T21:54:00,28.4330,-82.6670,0.441,11111222 
COMPS,ioos:station:USF.COMPS:ARP:1,2019-09-01T22:54:00,28.4330,-82.6670,0.248,11111222 
COMPS,ioos:station:USF.COMPS:ARP:1,2019-09-01T23:48:00,28.4330,-82.6670,0.064,11111222 
COMPS,ioos:station:USF.COMPS:ARP:1,2019-09-02T00:54:00,28.4330,-82.6670,-0.13,11114222 
COMPS,ioos:station:USF.COMPS:ARP:1,2019-09-02T01:48:00,28.4330,-82.6670,-0.257,11114222 
COMPS,ioos:station:USF.COMPS:ARP:1,2019-09-02T02:54:00,28.4330,-82.6670,-0.373,11114222 
COMPS,ioos:station:USF.COMPS:ARP:1,2019-09-02T03:54:00,28.4330,-82.6670,-0.399,11114222 
COMPS,ioos:station:USF.COMPS:ARP:1,2019-09-02T04:54:00,28.4330,-82.6670,-0.247,11114222 
COMPS,ioos:station:USF.COMPS:ARP:1,2019-09-02T05:54:00,28.4330,-82.6670,0.044,11111222 
COMPS,ioos:station:USF.COMPS:ARP:1,2019-09-02T06:54:00,28.4330,-82.6670,0.301,11111222 
COMPS,ioos:station:USF.COMPS:ARP:1,2019-09-02T07:54:00,28.4330,-82.6670,0.477,11111222 
COMPS,ioos:station:USF.COMPS:ARP:1,2019-09-02T08:54:00,28.4330,-82.6670,0.451,11111222 
COMPS,ioos:station:USF.COMPS:ARP:1,2019-09-02T09:54:00,28.4330,-82.6670,0.352,11111222 
COMPS,ioos:station:USF.COMPS:ARP:1,2019-09-02T10:54:00,28.4330,-82.6670,0.211,11111222 
COMPS,ioos:station:USF.COMPS:ARP:1,2019-09-02T11:54:00,28.4330,-82.6670,0.053,11111222 
COMPS,ioos:station:USF.COMPS:ARP:1,2019-09-02T13:54:00,28.4330,-82.6670,-0.231,11114222 
COMPS,ioos:station:USF.COMPS:ARP:1,2019-09-02T14:54:00,28.4330,-82.6670,-0.338,11114222 
COMPS,ioos:station:USF.COMPS:ARP:1,2019-09-02T15:54:00,28.4330,-82.6670,-0.353,11114222 
COMPS,ioos:station:USF.COMPS:ARP:1,2019-09-02T16:54:00,28.4330,-82.6670,-0.18,11114222 
COMPS,ioos:station:USF.COMPS:ARP:1,2019-09-02T17:54:00,28.4330,-82.6670,0.104,11111222 
COMPS,ioos:station:USF.COMPS:ARP:1,2019-09-02T18:54:00,28.4330,-82.6670,0.318,11111222 
COMPS,ioos:station:USF.COMPS:ARP:1,2019-09-02T19:54:00,28.4330,-82.6670,0.509,11111222 
COMPS,ioos:station:USF.COMPS:ARP:1,2019-09-02T20:54:00,28.4330,-82.6670,0.51,11111222 
COMPS,ioos:station:USF.COMPS:ARP:1,2019-09-02T21:54:00,28.4330,-82.6670,0.457,11111222 
COMPS,ioos:station:USF.COMPS:ARP:1,2019-09-02T22:54:00,28.4330,-82.6670,0.3,11111222 
COMPS,ioos:station:USF.COMPS:ARP:1,2019-09-02T23:54:00,28.4330,-82.6670,0.145,11111222 
COMPS,ioos:station:USF.COMPS:ARP:1,2019-09-03T00:54:00,28.4330,-82.6670,-0.031,11114222 
COMPS,ioos:station:USF.COMPS:ARP:1,2019-09-03T01:54:00,28.4330,-82.6670,-0.177,11114222 
COMPS,ioos:station:USF.COMPS:ARP:1,2019-09-03T02:54:00,28.4330,-82.6670,-0.297,11114222 
COMPS,ioos:station:USF.COMPS:ARP:1,2019-09-03T03:54:00,28.4330,-82.6670,-0.378,11114222 
COMPS,ioos:station:USF.COMPS:ARP:1,2019-09-03T04:54:00,28.4330,-82.6670,-0.347,11114222 
COMPS,ioos:station:USF.COMPS:ARP:1,2019-09-03T05:54:00,28.4330,-82.6670,-0.154,11114222 
COMPS,ioos:station:USF.COMPS:ARP:1,2019-09-03T06:54:00,28.4330,-82.6670,0.114,11111222 
COMPS,ioos:station:USF.COMPS:ARP:1,2019-09-03T07:54:00,28.4330,-82.6670,0.31,11111222 
COMPS,ioos:station:USF.COMPS:ARP:1,2019-09-03T08:54:00,28.4330,-82.6670,0.379,11111222 
COMPS,ioos:station:USF.COMPS:ARP:1,2019-09-03T09:54:00,28.4330,-82.6670,0.321,11111222 
COMPS,ioos:station:USF.COMPS:ARP:1,2019-09-03T10:54:00,28.4330,-82.6670,0.22,11111222 
COMPS,ioos:station:USF.COMPS:ARP:1,2019-09-03T11:54:00,28.4330,-82.6670,0.087,11111222 
COMPS,ioos:station:USF.COMPS:ARP:1,2019-09-03T12:54:00,28.4330,-82.6670,-0.058,11114222 
COMPS,ioos:station:USF.COMPS:ARP:1,2019-09-03T13:54:00,28.4330,-82.6670,-0.198,11114222 
COMPS,ioos:station:USF.COMPS:ARP:1,2019-09-03T14:54:00,28.4330,-82.6670,-0.317,11114222 
COMPS,ioos:station:USF.COMPS:ARP:1,2019-09-03T15:54:00,28.4330,-82.6670,-0.415,11114222 
COMPS,ioos:station:USF.COMPS:ARP:1,2019-09-03T16:54:00,28.4330,-82.6670,-0.453,11114222 
COMPS,ioos:station:USF.COMPS:ARP:1,2019-09-03T17:54:00,28.4330,-82.6670,-0.356,11114222 
COMPS,ioos:station:USF.COMPS:ARP:1,2019-09-03T19:54:00,28.4330,-82.6670,0.145,11111222 
COMPS,ioos:station:USF.COMPS:ARP:1,2019-09-03T20:54:00,28.4330,-82.6670,0.338,11111222 
COMPS,ioos:station:USF.COMPS:ARP:1,2019-09-03T21:54:00,28.4330,-82.6670,0.329,11111222 
COMPS,ioos:station:USF.COMPS:ARP:1,2019-09-03T23:54:00,28.4330,-82.6670,0.159,11111222 
COMPS,ioos:station:USF.COMPS:ARP:1,2019-09-04T00:54:00,28.4330,-82.6670,0.052,11111222 
COMPS,ioos:station:USF.COMPS:ARP:1,2019-09-04T01:54:00,28.4330,-82.6670,-0.048,11114222 
COMPS,ioos:station:USF.COMPS:ARP:1,2019-09-04T02:54:00,28.4330,-82.6670,-0.122,11114222 
COMPS,ioos:station:USF.COMPS:ARP:1,2019-09-04T03:54:00,28.4330,-82.6670,-0.171,11114222 
COMPS,ioos:station:USF.COMPS:ARP:1,2019-09-04T04:54:00,28.4330,-82.6670,-0.085,11114222 
COMPS,ioos:station:USF.COMPS:ARP:1,2019-09-04T05:54:00,28.4330,-82.6670,0.063,11111222 
COMPS,ioos:station:USF.COMPS:ARP:1,2019-09-04T06:54:00,28.4330,-82.6670,0.233,11111222 
COMPS,ioos:station:USF.COMPS:ARP:1,2019-09-04T07:54:00,28.4330,-82.6670,0.402,11111222 
COMPS,ioos:station:USF.COMPS:ARP:1,2019-09-04T08:54:00,28.4330,-82.6670,0.524,11111222 
COMPS,ioos:station:USF.COMPS:ARP:1,2019-09-04T09:54:00,28.4330,-82.6670,0.539,11111222 
COMPS,ioos:station:USF.COMPS:ARP:1,2019-09-04T10:54:00,28.4330,-82.6670,0.441,11111222 
COMPS,ioos:station:USF.COMPS:ARP:1,2019-09-04T11:54:00,28.4330,-82.6670,0.311,11111222 
COMPS,ioos:station:USF.COMPS:ARP:1,2019-09-04T12:54:00,28.4330,-82.6670,0.182,11111222 
COMPS,ioos:station:USF.COMPS:ARP:1,2019-09-04T13:54:00,28.4330,-82.6670,0.04,11111222 
COMPS,ioos:station:USF.COMPS:ARP:1,2019-09-04T14:54:00,28.4330,-82.6670,-0.084,11114222 
COMPS,ioos:station:USF.COMPS:ARP:1,2019-09-04T15:54:00,28.4330,-82.6670,-0.179,11114222 
COMPS,ioos:station:USF.COMPS:ARP:1,2019-09-04T16:54:00,28.4330,-82.6670,-0.251,11114222 
COMPS,ioos:station:USF.COMPS:ARP:1,2019-09-04T17:54:00,28.4330,-82.6670,-0.209,11114222 
COMPS,ioos:station:USF.COMPS:ARP:1,2019-09-04T18:54:00,28.4330,-82.6670,-0.057,11114222 
COMPS,ioos:station:USF.COMPS:ARP:1,2019-09-04T19:54:00,28.4330,-82.6670,0.137,11111222 
COMPS,ioos:station:USF.COMPS:ARP:1,2019-09-04T20:54:00,28.4330,-82.6670,0.319,11111222 
COMPS,ioos:station:USF.COMPS:ARP:1,2019-09-04T21:54:00,28.4330,-82.6670,0.416,11111222 
COMPS,ioos:station:USF.COMPS:ARP:1,2019-09-04T22:54:00,28.4330,-82.6670,0.398,11111222 
COMPS,ioos:station:USF.COMPS:ARP:1,2019-09-04T23:54:00,28.4330,-82.6670,0.333,11111222 
COMPS,ioos:station:USF.COMPS:ARP:1,2019-09-05T00:54:00,28.4330,-82.6670,0.237,11111222 
COMPS,ioos:station:USF.COMPS:ARP:1,2019-09-05T01:54:00,28.4330,-82.6670,0.126,11111222 
COMPS,ioos:station:USF.COMPS:ARP:1,2019-09-05T02:54:00,28.4330,-82.6670,0.042,11111222 
COMPS,ioos:station:USF.COMPS:ARP:1,2019-09-05T03:54:00,28.4330,-82.6670,-0.004,11114222 
COMPS,ioos:station:USF.COMPS:ARP:1,2019-09-05T04:54:00,28.4330,-82.6670,0.066,11111222 
COMPS,ioos:station:USF.COMPS:ARP:1,2019-09-05T05:54:00,28.4330,-82.6670,0.153,11111222 
COMPS,ioos:station:USF.COMPS:ARP:1,2019-09-05T06:54:00,28.4330,-82.6670,0.307,11111222 
COMPS,ioos:station:USF.COMPS:ARP:1,2019-09-05T07:54:00,28.4330,-82.6670,0.496,11111222 
COMPS,ioos:station:USF.COMPS:ARP:1,2019-09-05T08:54:00,28.4330,-82.6670,0.608,11111222 
COMPS,ioos:station:USF.COMPS:ARP:1,2019-09-05T09:54:00,28.4330,-82.6670,0.621,11111222 
COMPS,ioos:station:USF.COMPS:ARP:1,2019-09-05T10:54:00,28.4330,-82.6670,0.555,11111222 
COMPS,ioos:station:USF.COMPS:ARP:1,2019-09-05T11:54:00,28.4330,-82.6670,0.464,11111222 
COMPS,ioos:station:USF.COMPS:ARP:1,2019-09-05T12:54:00,28.4330,-82.6670,0.321,11111222 
COMPS,ioos:station:USF.COMPS:ARP:1,2019-09-05T13:54:00,28.4330,-82.6670,0.18,11111222 
COMPS,ioos:station:USF.COMPS:ARP:1,2019-09-05T14:54:00,28.4330,-82.6670,0.037,11111222 
COMPS,ioos:station:USF.COMPS:ARP:1,2019-09-05T15:54:00,28.4330,-82.6670,-0.101,11114222 
COMPS,ioos:station:USF.COMPS:ARP:1,2019-09-05T16:54:00,28.4330,-82.6670,-0.21,11114222 
COMPS,ioos:station:USF.COMPS:ARP:1,2019-09-05T17:54:00,28.4330,-82.6670,-0.252,11114222 
COMPS,ioos:station:USF.COMPS:ARP:1,2019-09-05T18:54:00,28.4330,-82.6670,-0.174,11114222 
COMPS,ioos:station:USF.COMPS:ARP:1,2019-09-05T19:54:00,28.4330,-82.6670,-0.066,11114222 
COMPS,ioos:station:USF.COMPS:ARP:1,2019-09-05T20:54:00,28.4330,-82.6670,0.07,11111222 
COMPS,ioos:station:USF.COMPS:ARP:1,2019-09-05T21:54:00,28.4330,-82.6670,0.211,11111222 
COMPS,ioos:station:USF.COMPS:ARP:1,2019-09-05T22:54:00,28.4330,-82.6670,0.314,11111222 
COMPS,ioos:station:USF.COMPS:ARP:1,2019-09-05T23:54:00,28.4330,-82.6670,0.34,11111222 
COMPS,ioos:station:USF.COMPS:ARP:1,2019-09-06T00:54:00,28.4330,-82.6670,0.297,11111222 
COMPS,ioos:station:USF.COMPS:ARP:1,2019-09-06T01:54:00,28.4330,-82.6670,0.236,11111222 
COMPS,ioos:station:USF.COMPS:ARP:1,2019-09-06T02:54:00,28.4330,-82.6670,0.167,11111222 
COMPS,ioos:station:USF.COMPS:ARP:1,2019-09-06T03:54:00,28.4330,-82.6670,0.135,11111222 
COMPS,ioos:station:USF.COMPS:ARP:1,2019-09-06T05:54:00,28.4330,-82.6670,0.883,11111222 
COMPS,ioos:station:USF.COMPS:ARP:1,2019-09-06T06:54:00,28.4330,-82.6670,0.228,11111222 
COMPS,ioos:station:USF.COMPS:ARP:1,2019-09-06T07:54:00,28.4330,-82.6670,0.315,11111222 
COMPS,ioos:station:USF.COMPS:ARP:1,2019-09-06T08:54:00,28.4330,-82.6670,0.428,11111222 
COMPS,ioos:station:USF.COMPS:ARP:1,2019-09-06T09:54:00,28.4330,-82.6670,0.529,11111222 
COMPS,ioos:station:USF.COMPS:ARP:1,2019-09-06T10:54:00,28.4330,-82.6670,0.578,11111222 
COMPS,ioos:station:USF.COMPS:ARP:1,2019-09-06T11:54:00,28.4330,-82.6670,0.524,11111222 
COMPS,ioos:station:USF.COMPS:ARP:1,2019-09-06T12:54:00,28.4330,-82.6670,0.408,11111222 
COMPS,ioos:station:USF.COMPS:ARP:1,2019-09-06T13:54:00,28.4330,-82.6670,0.267,11111222 
COMPS,ioos:station:USF.COMPS:ARP:1,2019-09-06T14:54:00,28.4330,-82.6670,0.112,11111222 
COMPS,ioos:station:USF.COMPS:ARP:1,2019-09-06T15:54:00,28.4330,-82.6670,-0.047,11114222 
COMPS,ioos:station:USF.COMPS:ARP:1,2019-09-06T16:54:00,28.4330,-82.6670,-0.165,11114222 
COMPS,ioos:station:USF.COMPS:ARP:1,2019-09-06T17:48:00,28.4330,-82.6670,-0.229,11114222 
COMPS,ioos:station:USF.COMPS:ARP:1,2019-09-06T18:54:00,28.4330,-82.6670,-0.203,11114222 
COMPS,ioos:station:USF.COMPS:ARP:1,2019-09-06T19:54:00,28.4330,-82.6670,-0.171,11114222 
COMPS,ioos:station:USF.COMPS:ARP:1,2019-09-06T20:54:00,28.4330,-82.6670,-0.071,11114222 
COMPS,ioos:station:USF.COMPS:ARP:1,2019-09-06T21:54:00,28.4330,-82.6670,0.064,11111222 
COMPS,ioos:station:USF.COMPS:ARP:1,2019-09-06T22:54:00,28.4330,-82.6670,0.174,11111222 
COMPS,ioos:station:USF.COMPS:ARP:1,2019-09-06T23:54:00,28.4330,-82.6670,0.249,11111222 
COMPS,ioos:station:USF.COMPS:ARP:1,2019-09-07T00:54:00,28.4330,-82.6670,0.311,11111222 
COMPS,ioos:station:USF.COMPS:ARP:1,2019-09-07T01:54:00,28.4330,-82.6670,0.311,11111222 
COMPS,ioos:station:USF.COMPS:ARP:1,2019-09-07T02:54:00,28.4330,-82.6670,0.265,11111222 
COMPS,ioos:station:USF.COMPS:ARP:1,2019-09-07T03:54:00,28.4330,-82.6670,0.208,11111222 
COMPS,ioos:station:USF.COMPS:ARP:1,2019-09-07T04:54:00,28.4330,-82.6670,0.197,11111222 
COMPS,ioos:station:USF.COMPS:ARP:1,2019-09-07T05:54:00,28.4330,-82.6670,0.232,11111222 
COMPS,ioos:station:USF.COMPS:ARP:1,2019-09-07T06:54:00,28.4330,-82.6670,0.254,11111222 
COMPS,ioos:station:USF.COMPS:ARP:1,2019-09-07T07:54:00,28.4330,-82.6670,0.295,11111222 
COMPS,ioos:station:USF.COMPS:ARP:1,2019-09-07T08:54:00,28.4330,-82.6670,0.353,11111222 
COMPS,ioos:station:USF.COMPS:ARP:1,2019-09-07T09:54:00,28.4330,-82.6670,0.42,11111222 
COMPS,ioos:station:USF.COMPS:ARP:1,2019-09-07T10:54:00,28.4330,-82.6670,0.481,11111222 
COMPS,ioos:station:USF.COMPS:ARP:1,2019-09-07T11:54:00,28.4330,-82.6670,0.434,11111222 
COMPS,ioos:station:USF.COMPS:ARP:1,2019-09-07T12:54:00,28.4330,-82.6670,0.396,11111222 
COMPS,ioos:station:USF.COMPS:ARP:1,2019-09-07T13:54:00,28.4330,-82.6670,0.304,11111222 
COMPS,ioos:station:USF.COMPS:ARP:1,2019-09-07T14:54:00,28.4330,-82.6670,0.202,11111222 
COMPS,ioos:station:USF.COMPS:ARP:1,2019-09-07T15:54:00,28.4330,-82.6670,0.094,11111222 
COMPS,ioos:station:USF.COMPS:ARP:1,2019-09-07T16:54:00,28.4330,-82.6670,-0.044,11114222 
COMPS,ioos:station:USF.COMPS:ARP:1,2019-09-07T17:54:00,28.4330,-82.6670,-0.161,11114222 
COMPS,ioos:station:USF.COMPS:ARP:1,2019-09-07T18:54:00,28.4330,-82.6670,-0.248,11114222 
COMPS,ioos:station:USF.COMPS:ARP:1,2019-09-07T19:54:00,28.4330,-82.6670,-0.319,11114222 
COMPS,ioos:station:USF.COMPS:ARP:1,2019-09-07T20:54:00,28.4330,-82.6670,-0.288,11114222 
COMPS,ioos:station:USF.COMPS:ARP:1,2019-09-07T21:54:00,28.4330,-82.6670,-0.148,11114222 
COMPS,ioos:station:USF.COMPS:ARP:1,2019-09-07T22:54:00,28.4330,-82.6670,0.033,11111222 
COMPS,ioos:station:USF.COMPS:ARP:1,2019-09-07T23:54:00,28.4330,-82.6670,0.17,11111222 
COMPS,ioos:station:USF.COMPS:ARP:1,2019-09-08T00:54:00,28.4330,-82.6670,0.283,11111222 
COMPS,ioos:station:USF.COMPS:ARP:1,2019-09-08T01:54:00,28.4330,-82.6670,0.357,11111222 
COMPS,ioos:station:USF.COMPS:ARP:1,2019-09-08T02:54:00,28.4330,-82.6670,0.372,11111222 
COMPS,ioos:station:USF.COMPS:ARP:1,2019-09-08T03:54:00,28.4330,-82.6670,0.347,11111222 
COMPS,ioos:station:USF.COMPS:ARP:1,2019-09-08T04:54:00,28.4330,-82.6670,0.322,11111222 
COMPS,ioos:station:USF.COMPS:ARP:1,2019-09-08T05:48:00,28.4330,-82.6670,0.273,11111222 
COMPS,ioos:station:USF.COMPS:ARP:1,2019-09-08T06:54:00,28.4330,-82.6670,0.204,11111222 
COMPS,ioos:station:USF.COMPS:ARP:1,2019-09-08T07:54:00,28.4330,-82.6670,0.175,11111222 
COMPS,ioos:station:USF.COMPS:ARP:1,2019-09-08T08:54:00,28.4330,-82.6670,0.209,11111222 
COMPS,ioos:station:USF.COMPS:ARP:1,2019-09-08T09:54:00,28.4330,-82.6670,0.294,11111222 
COMPS,ioos:station:USF.COMPS:ARP:1,2019-09-08T10:54:00,28.4330,-82.6670,0.39,11111222 
COMPS,ioos:station:USF.COMPS:ARP:1,2019-09-08T11:54:00,28.4330,-82.6670,0.47,11111222 
COMPS,ioos:station:USF.COMPS:ARP:1,2019-09-08T12:54:00,28.4330,-82.6670,0.523,11111222 
COMPS,ioos:station:USF.COMPS:ARP:1,2019-09-08T13:54:00,28.4330,-82.6670,0.511,11111222 
COMPS,ioos:station:USF.COMPS:ARP:1,2019-09-08T14:54:00,28.4330,-82.6670,0.436,11111222 
COMPS,ioos:station:USF.COMPS:ARP:1,2019-09-08T15:54:00,28.4330,-82.6670,0.307,11111222 
COMPS,ioos:station:USF.COMPS:ARP:1,2019-09-08T16:54:00,28.4330,-82.6670,0.176,11111222 
COMPS,ioos:station:USF.COMPS:ARP:1,2019-09-08T17:54:00,28.4330,-82.6670,0.044,11111222 
COMPS,ioos:station:USF.COMPS:ARP:1,2019-09-08T18:54:00,28.4330,-82.6670,-0.084,11114222 
COMPS,ioos:station:USF.COMPS:ARP:1,2019-09-08T19:54:00,28.4330,-82.6670,-0.2,11114222 
COMPS,ioos:station:USF.COMPS:ARP:1,2019-09-08T20:54:00,28.4330,-82.6670,-0.273,11114222 
COMPS,ioos:station:USF.COMPS:ARP:1,2019-09-08T21:54:00,28.4330,-82.6670,-0.258,11114222 
COMPS,ioos:station:USF.COMPS:ARP:1,2019-09-08T22:54:00,28.4330,-82.6670,-0.169,11114222 
COMPS,ioos:station:USF.COMPS:ARP:1,2019-09-08T23:54:00,28.4330,-82.6670,-0.007,11114222 
COMPS,ioos:station:USF.COMPS:ARP:1,2019-09-09T00:54:00,28.4330,-82.6670,0.166,11111222 
COMPS,ioos:station:USF.COMPS:ARP:1,2019-09-09T01:54:00,28.4330,-82.6670,0.318,11111222 
COMPS,ioos:station:USF.COMPS:ARP:1,2019-09-09T02:54:00,28.4330,-82.6670,0.412,11111222 
COMPS,ioos:station:USF.COMPS:ARP:1,2019-09-09T03:54:00,28.4330,-82.6670,0.443,11111222 
COMPS,ioos:station:USF.COMPS:ARP:1,2019-09-09T04:54:00,28.4330,-82.6670,0.375,11111222 
COMPS,ioos:station:USF.COMPS:ARP:1,2019-09-09T05:54:00,28.4330,-82.6670,0.311,11111222 
COMPS,ioos:station:USF.COMPS:ARP:1,2019-09-09T06:54:00,28.4330,-82.6670,0.195,11111222 
COMPS,ioos:station:USF.COMPS:ARP:1,2019-09-09T07:54:00,28.4330,-82.6670,0.113,11111222 
COMPS,ioos:station:USF.COMPS:ARP:1,2019-09-09T08:48:00,28.4330,-82.6670,0.057,11111222 
COMPS,ioos:station:USF.COMPS:ARP:1,2019-09-09T09:54:00,28.4330,-82.6670,0.078,11111222 
COMPS,ioos:station:USF.COMPS:ARP:1,2019-09-09T10:54:00,28.4330,-82.6670,0.172,11111222 
COMPS,ioos:station:USF.COMPS:ARP:1,2019-09-09T11:54:00,28.4330,-82.6670,0.32,11111222 
COMPS,ioos:station:USF.COMPS:ARP:1,2019-09-09T12:54:00,28.4330,-82.6670,0.441,11111222 
COMPS,ioos:station:USF.COMPS:ARP:1,2019-09-09T13:54:00,28.4330,-82.6670,0.524,11111222 
COMPS,ioos:station:USF.COMPS:ARP:1,2019-09-09T14:54:00,28.4330,-82.6670,0.549,11111222 
COMPS,ioos:station:USF.COMPS:ARP:1,2019-09-09T15:54:00,28.4330,-82.6670,0.494,11111222 
COMPS,ioos:station:USF.COMPS:ARP:1,2019-09-09T16:54:00,28.4330,-82.6670,0.372,11111222 
COMPS,ioos:station:USF.COMPS:ARP:1,2019-09-09T20:54:00,28.4330,-82.6670,-0.21,11114222 
COMPS,ioos:station:USF.COMPS:ARP:1,2019-09-09T21:54:00,28.4330,-82.6670,-0.31,11114222 
COMPS,ioos:station:USF.COMPS:ARP:1,2019-09-09T22:54:00,28.4330,-82.6670,-0.349,11114222 
COMPS,ioos:station:USF.COMPS:ARP:1,2019-09-09T23:54:00,28.4330,-82.6670,-0.248,11114222 
COMPS,ioos:station:USF.COMPS:ARP:1,2019-09-10T00:54:00,28.4330,-82.6670,-0.093,11114222 
COMPS,ioos:station:USF.COMPS:ARP:1,2019-09-10T01:54:00,28.4330,-82.6670,0.119,11111222 
COMPS,ioos:station:USF.COMPS:ARP:1,2019-09-10T02:54:00,28.4330,-82.6670,0.25,11111222 
COMPS,ioos:station:USF.COMPS:ARP:1,2019-09-10T03:54:00,28.4330,-82.6670,0.318,11111222 
COMPS,ioos:station:USF.COMPS:ARP:1,2019-09-10T04:54:00,28.4330,-82.6670,0.382,11111222 
COMPS,ioos:station:USF.COMPS:ARP:1,2019-09-10T05:54:00,28.4330,-82.6670,0.367,11111222 
COMPS,ioos:station:USF.COMPS:ARP:1,2019-09-10T06:54:00,28.4330,-82.6670,0.358,11111222 
COMPS,ioos:station:USF.COMPS:ARP:1,2019-09-10T07:54:00,28.4330,-82.6670,0.187,11111222 
COMPS,ioos:station:USF.COMPS:ARP:1,2019-09-10T08:54:00,28.4330,-82.6670,0.045,11111222 
COMPS,ioos:station:USF.COMPS:ARP:1,2019-09-10T09:54:00,28.4330,-82.6670,-0.018,11114222 
COMPS,ioos:station:USF.COMPS:ARP:1,2019-09-10T10:54:00,28.4330,-82.6670,0.065,11111222 
COMPS,ioos:station:USF.COMPS:ARP:1,2019-09-10T11:54:00,28.4330,-82.6670,0.182,11111222 
COMPS,ioos:station:USF.COMPS:ARP:1,2019-09-10T12:54:00,28.4330,-82.6670,0.315,11111222 
COMPS,ioos:station:USF.COMPS:ARP:1,2019-09-10T13:54:00,28.4330,-82.6670,0.431,11111222 
COMPS,ioos:station:USF.COMPS:ARP:1,2019-09-10T14:54:00,28.4330,-82.6670,0.54,11111222 
COMPS,ioos:station:USF.COMPS:ARP:1,2019-09-10T15:54:00,28.4330,-82.6670,0.589,11111222 
COMPS,ioos:station:USF.COMPS:ARP:1,2019-09-10T16:54:00,28.4330,-82.6670,0.535,11111222 
COMPS,ioos:station:USF.COMPS:ARP:1,2019-09-10T17:54:00,28.4330,-82.6670,0.377,11111222 
COMPS,ioos:station:USF.COMPS:ARP:1,2019-09-10T18:54:00,28.4330,-82.6670,0.198,11111222 
COMPS,ioos:station:USF.COMPS:ARP:1,2019-09-10T19:54:00,28.4330,-82.6670,0.024,11111222 
COMPS,ioos:station:USF.COMPS:ARP:1,2019-09-10T20:48:00,28.4330,-82.6670,-0.099,11114222 
COMPS,ioos:station:USF.COMPS:ARP:1,2019-09-10T21:54:00,28.4330,-82.6670,-0.241,11114222 
COMPS,ioos:station:USF.COMPS:ARP:1,2019-09-10T22:54:00,28.4330,-82.6670,-0.337,11114222 
COMPS,ioos:station:USF.COMPS:ARP:1,2019-09-10T23:54:00,28.4330,-82.6670,-0.399,11114222 
COMPS,ioos:station:USF.COMPS:ARP:1,2019-09-11T00:54:00,28.4330,-82.6670,-0.362,11114222 
COMPS,ioos:station:USF.COMPS:ARP:1,2019-09-11T01:48:00,28.4330,-82.6670,-0.255,11114222 
COMPS,ioos:station:USF.COMPS:ARP:1,2019-09-11T02:54:00,28.4330,-82.6670,-0.054,11114222 
COMPS,ioos:station:USF.COMPS:ARP:1,2019-09-11T03:54:00,28.4330,-82.6670,0.142,11111222 
COMPS,ioos:station:USF.COMPS:ARP:1,2019-09-11T04:54:00,28.4330,-82.6670,0.305,11111222 
COMPS,ioos:station:USF.COMPS:ARP:1,2019-09-11T05:54:00,28.4330,-82.6670,0.315,11111222 
COMPS,ioos:station:USF.COMPS:ARP:1,2019-09-11T06:54:00,28.4330,-82.6670,0.222,11111222 
COMPS,ioos:station:USF.COMPS:ARP:1,2019-09-11T07:54:00,28.4330,-82.6670,0.114,11111222 
COMPS,ioos:station:USF.COMPS:ARP:1,2019-09-11T08:54:00,28.4330,-82.6670,-0.007,11114222 
COMPS,ioos:station:USF.COMPS:ARP:1,2019-09-11T09:54:00,28.4330,-82.6670,-0.117,11114222 
COMPS,ioos:station:USF.COMPS:ARP:1,2019-09-11T10:54:00,28.4330,-82.6670,-0.188,11114222 
COMPS,ioos:station:USF.COMPS:ARP:1,2019-09-11T11:54:00,28.4330,-82.6670,-0.099,11114222 
COMPS,ioos:station:USF.COMPS:ARP:1,2019-09-11T12:54:00,28.4330,-82.6670,0.016,11111222 
COMPS,ioos:station:USF.COMPS:ARP:1,2019-09-11T13:54:00,28.4330,-82.6670,0.214,11111222 
COMPS,ioos:station:USF.COMPS:ARP:1,2019-09-11T14:54:00,28.4330,-82.6670,0.41,11111222 
COMPS,ioos:station:USF.COMPS:ARP:1,2019-09-11T15:54:00,28.4330,-82.6670,0.557,11111222 
COMPS,ioos:station:USF.COMPS:ARP:1,2019-09-11T16:54:00,28.4330,-82.6670,0.556,11111222 
COMPS,ioos:station:USF.COMPS:ARP:1,2019-09-11T17:54:00,28.4330,-82.6670,0.43,11111222 
COMPS,ioos:station:USF.COMPS:ARP:1,2019-09-11T18:54:00,28.4330,-82.6670,0.289,11111222 
COMPS,ioos:station:USF.COMPS:ARP:1,2019-09-11T19:54:00,28.4330,-82.6670,0.131,11111222 
COMPS,ioos:station:USF.COMPS:ARP:1,2019-09-11T20:54:00,28.4330,-82.6670,-0.047,11114222 
COMPS,ioos:station:USF.COMPS:ARP:1,2019-09-11T21:54:00,28.4330,-82.6670,-0.203,11114222 
COMPS,ioos:station:USF.COMPS:ARP:1,2019-09-11T23:54:00,28.4330,-82.6670,-0.421,11114222 
COMPS,ioos:station:USF.COMPS:ARP:1,2019-09-12T00:54:00,28.4330,-82.6670,-0.483,11114222 
COMPS,ioos:station:USF.COMPS:ARP:1,2019-09-12T01:54:00,28.4330,-82.6670,-0.446,11114222 
COMPS,ioos:station:USF.COMPS:ARP:1,2019-09-12T02:54:00,28.4330,-82.6670,-0.267,11114222 
COMPS,ioos:station:USF.COMPS:ARP:1,2019-09-12T03:54:00,28.4330,-82.6670,0.033,11111222 
COMPS,ioos:station:USF.COMPS:ARP:1,2019-09-12T04:54:00,28.4330,-82.6670,0.229,11111222 
COMPS,ioos:station:USF.COMPS:ARP:1,2019-09-12T05:54:00,28.4330,-82.6670,0.296,11111222 
COMPS,ioos:station:USF.COMPS:ARP:1,2019-09-12T06:54:00,28.4330,-82.6670,0.253,11111222 
COMPS,ioos:station:USF.COMPS:ARP:1,2019-09-12T07:54:00,28.4330,-82.6670,0.141,11111222 
COMPS,ioos:station:USF.COMPS:ARP:1,2019-09-12T08:54:00,28.4330,-82.6670,0.018,11111222 
COMPS,ioos:station:USF.COMPS:ARP:1,2019-09-12T09:54:00,28.4330,-82.6670,-0.101,11114222 
COMPS,ioos:station:USF.COMPS:ARP:1,2019-09-12T10:54:00,28.4330,-82.6670,-0.194,11114222 
COMPS,ioos:station:USF.COMPS:ARP:1,2019-09-12T11:54:00,28.4330,-82.6670,-0.222,11114222 
COMPS,ioos:station:USF.COMPS:ARP:1,2019-09-12T12:54:00,28.4330,-82.6670,-0.082,11114222 
COMPS,ioos:station:USF.COMPS:ARP:1,2019-09-12T13:54:00,28.4330,-82.6670,0.098,11111222 
COMPS,ioos:station:USF.COMPS:ARP:1,2019-09-13T18:54:00,28.4330,-82.6670,0.358,11111222 